QTRB8K YSSY-YMML

Flight info

Callsign QTRB8K
Flight time 1h 11m
Altitude 32000
Route WOL DCT CB DCT BOYSE
Aircraft A320/M-SDE3FGHIRWY/LB1

Departure

Time 2026-05-06 07:04
Airport Sydney Kingsford Smith International Airport (YSSY)

Arrival

Time 2026-05-06 08:16
Airport Melbourne Airport (YMML)
Time Latitude Longitude Altitude Speed Heading
2026-05-06 06:22 -33.93632 151.16919 21 ft 0 kts 179°
2026-05-06 06:54 -33.93622 151.16919 22 ft 2 kts 179°
2026-05-06 06:54 -33.93605 151.16918 22 ft 2 kts 179°
2026-05-06 06:55 -33.93588 151.16918 23 ft 2 kts 179°
2026-05-06 06:55 -33.93570 151.16918 22 ft 2 kts 179°
2026-05-06 06:55 -33.93553 151.16916 23 ft 3 kts 153°
2026-05-06 06:55 -33.93539 151.16903 23 ft 3 kts 117°
2026-05-06 06:56 -33.93534 151.16883 23 ft 2 kts 81°
2026-05-06 06:56 -33.93535 151.16876 24 ft 0 kts 70°
2026-05-06 07:00 -33.93532 151.16886 22 ft 3 kts 70°
2026-05-06 07:00 -33.93524 151.16918 21 ft 5 kts 73°
2026-05-06 07:00 -33.93514 151.16973 21 ft 8 kts 78°
2026-05-06 07:00 -33.93499 151.17053 21 ft 11 kts 75°
2026-05-06 07:01 -33.93477 151.17089 23 ft 1 kts 50°
2026-05-06 07:01 -33.93467 151.17102 20 ft 0 kts 49°
2026-05-06 07:01 -33.93467 151.17103 20 ft 0 kts 49°
2026-05-06 07:02 -33.93454 151.17122 17 ft 0 kts 53°
2026-05-06 07:02 -33.93453 151.17124 17 ft 2 kts 53°
2026-05-06 07:02 -33.93440 151.17169 16 ft 11 kts 79°
2026-05-06 07:03 -33.93429 151.17267 16 ft 11 kts 105°
2026-05-06 07:03 -33.93472 151.17301 16 ft 1 kts 166°
2026-05-06 07:03 -33.93481 151.17304 16 ft 0 kts 165°
2026-05-06 07:03 -33.93545 151.17322 16 ft 38 kts 171°
2026-05-06 07:04 -33.94029 151.17446 20 ft 101 kts 167°
2026-05-06 07:04 -33.94877 151.17673 23 ft 148 kts 169°
2026-05-06 07:04 -33.95967 151.17804 222 ft 165 kts 182°
2026-05-06 07:04 -33.97135 151.17631 791 ft 168 kts 181°
2026-05-06 07:05 -33.98309 151.17571 1384 ft 174 kts 180°
2026-05-06 07:05 -33.99573 151.17538 1814 ft 190 kts 180°
2026-05-06 07:05 -34.00948 151.17501 2253 ft 206 kts 182°
2026-05-06 07:05 -34.02442 151.17466 2656 ft 225 kts 178°
2026-05-06 07:06 -34.03999 151.17898 3166 ft 242 kts 163°
2026-05-06 07:06 -34.05693 151.18508 3752 ft 259 kts 165°
2026-05-06 07:06 -34.07457 151.19107 4438 ft 272 kts 166°
2026-05-06 07:06 -34.09300 151.19720 4882 ft 276 kts 166°
2026-05-06 07:07 -34.11146 151.20332 5369 ft 276 kts 166°
2026-05-06 07:07 -34.13010 151.20948 6282 ft 279 kts 167°
2026-05-06 07:07 -34.14895 151.21571 7147 ft 283 kts 167°
2026-05-06 07:07 -34.16812 151.22186 7981 ft 287 kts 171°
2026-05-06 07:08 -34.18795 151.22285 8819 ft 286 kts 191°
2026-05-06 07:08 -34.20623 151.21619 10101 ft 263 kts 210°
2026-05-06 07:08 -34.22079 151.20469 11303 ft 242 kts 225°
2026-05-06 07:08 -34.23213 151.19006 12158 ft 238 kts 233°
2026-05-06 07:09 -34.24294 151.17480 12884 ft 240 kts 233°
2026-05-06 07:09 -34.25388 151.15941 13621 ft 242 kts 233°
2026-05-06 07:09 -34.26491 151.14399 14308 ft 243 kts 233°
2026-05-06 07:09 -34.27602 151.12841 14965 ft 245 kts 233°
2026-05-06 07:10 -34.28718 151.11266 15603 ft 247 kts 233°
2026-05-06 07:10 -34.29843 151.09682 16247 ft 249 kts 233°
2026-05-06 07:10 -34.30977 151.08085 16888 ft 251 kts 233°
2026-05-06 07:10 -34.32119 151.06475 17520 ft 253 kts 233°
2026-05-06 07:11 -34.33270 151.04848 18156 ft 255 kts 233°
2026-05-06 07:11 -34.34429 151.03211 18719 ft 257 kts 233°
2026-05-06 07:11 -34.35583 151.01579 19254 ft 259 kts 233°
2026-05-06 07:11 -34.36762 150.99914 19800 ft 261 kts 233°
2026-05-06 07:12 -34.38060 150.98351 20339 ft 265 kts 226°
2026-05-06 07:12 -34.39443 150.96854 20851 ft 268 kts 226°
2026-05-06 07:12 -34.40838 150.95342 21345 ft 271 kts 226°
2026-05-06 07:12 -34.42250 150.93816 21852 ft 273 kts 227°
2026-05-06 07:13 -34.43673 150.92270 22346 ft 276 kts 227°
2026-05-06 07:13 -34.45110 150.90710 22827 ft 278 kts 227°
2026-05-06 07:13 -34.46559 150.89139 23306 ft 281 kts 227°
2026-05-06 07:13 -34.48027 150.87551 23757 ft 283 kts 227°
2026-05-06 07:14 -34.49504 150.85951 24137 ft 286 kts 227°
2026-05-06 07:14 -34.50987 150.84336 24511 ft 288 kts 227°
2026-05-06 07:14 -34.52466 150.82719 24875 ft 291 kts 227°
2026-05-06 07:14 -34.53977 150.81069 25239 ft 294 kts 227°
2026-05-06 07:15 -34.55394 150.79287 25602 ft 293 kts 234°
2026-05-06 07:15 -34.56614 150.77311 25959 ft 293 kts 242°
2026-05-06 07:15 -34.57649 150.75185 26309 ft 294 kts 244°
2026-05-06 07:15 -34.58672 150.73022 26664 ft 297 kts 244°
2026-05-06 07:16 -34.59710 150.70842 27006 ft 299 kts 244°
2026-05-06 07:16 -34.60758 150.68649 27358 ft 302 kts 244°
2026-05-06 07:16 -34.61814 150.66433 27702 ft 305 kts 244°
2026-05-06 07:16 -34.62879 150.64193 28052 ft 307 kts 244°
2026-05-06 07:17 -34.63950 150.61935 28399 ft 309 kts 244°
2026-05-06 07:17 -34.65029 150.59665 28741 ft 312 kts 244°
2026-05-06 07:17 -34.66117 150.57375 29066 ft 315 kts 244°
2026-05-06 07:17 -34.67216 150.55057 29410 ft 317 kts 244°
2026-05-06 07:18 -34.68323 150.52724 29761 ft 320 kts 244°
2026-05-06 07:18 -34.69438 150.50374 30097 ft 322 kts 244°
2026-05-06 07:18 -34.70560 150.47998 30390 ft 325 kts 244°
2026-05-06 07:18 -34.71668 150.45640 30678 ft 326 kts 244°
2026-05-06 07:19 -34.72798 150.43239 30976 ft 328 kts 244°
2026-05-06 07:19 -34.73933 150.40829 31257 ft 330 kts 245°
2026-05-06 07:19 -34.75077 150.38399 31544 ft 332 kts 245°
2026-05-06 07:19 -34.76224 150.35966 31842 ft 333 kts 245°
2026-05-06 07:20 -34.77385 150.33501 32019 ft 339 kts 245°
2026-05-06 07:20 -34.79790 150.28369 32067 ft 360 kts 245°
2026-05-06 07:20 -34.81047 150.25675 32063 ft 371 kts 244°
2026-05-06 07:21 -34.82344 150.22898 32059 ft 383 kts 244°
2026-05-06 07:21 -34.83682 150.20042 32065 ft 394 kts 244°
2026-05-06 07:21 -34.85060 150.17105 32065 ft 405 kts 244°
2026-05-06 07:22 -34.87919 150.11004 32066 ft 425 kts 244°
2026-05-06 07:22 -34.90876 150.04676 32071 ft 431 kts 244°
2026-05-06 07:23 -34.93846 149.98327 32072 ft 431 kts 244°
2026-05-06 07:23 -34.96808 149.91961 32081 ft 431 kts 244°
2026-05-06 07:24 -34.99763 149.85589 32079 ft 431 kts 244°
2026-05-06 07:24 -35.02698 149.79253 32089 ft 431 kts 244°
2026-05-06 07:25 -35.05651 149.72891 32088 ft 431 kts 244°
2026-05-06 07:25 -35.08595 149.66517 32098 ft 430 kts 245°
2026-05-06 07:26 -35.11525 149.60143 32100 ft 430 kts 245°
2026-05-06 07:26 -35.14454 149.53769 32097 ft 430 kts 245°
2026-05-06 07:27 -35.17388 149.47397 32101 ft 430 kts 245°
2026-05-06 07:27 -35.20310 149.41025 32107 ft 430 kts 245°
2026-05-06 07:28 -35.23227 149.34634 32117 ft 430 kts 245°
2026-05-06 07:28 -35.27570 149.25097 32124 ft 429 kts 245°
2026-05-06 07:29 -35.30682 149.18843 32119 ft 433 kts 238°
2026-05-06 07:29 -35.34251 149.12888 32119 ft 433 kts 238°
2026-05-06 07:30 -35.37801 149.06920 32117 ft 433 kts 238°
2026-05-06 07:30 -35.41338 149.00957 32113 ft 432 kts 239°
2026-05-06 07:31 -35.44874 148.94987 32113 ft 432 kts 239°
2026-05-06 07:31 -35.48405 148.89020 32114 ft 432 kts 239°
2026-05-06 07:32 -35.51939 148.83053 32116 ft 432 kts 239°
2026-05-06 07:32 -35.55468 148.77080 32117 ft 432 kts 239°
2026-05-06 07:33 -35.58979 148.71111 32123 ft 431 kts 239°
2026-05-06 07:33 -35.62471 148.65169 32123 ft 431 kts 239°
2026-05-06 07:34 -35.65985 148.59185 32125 ft 431 kts 239°
2026-05-06 07:34 -35.68901 148.54206 32130 ft 431 kts 239°
2026-05-06 07:35 -35.72405 148.48225 32136 ft 431 kts 239°
2026-05-06 07:35 -35.75909 148.42233 32131 ft 431 kts 239°
2026-05-06 07:36 -35.79408 148.36236 32137 ft 431 kts 239°
2026-05-06 07:36 -35.82902 148.30233 32140 ft 430 kts 239°
2026-05-06 07:37 -35.86387 148.24224 32145 ft 430 kts 240°
2026-05-06 07:37 -35.89868 148.18225 32147 ft 430 kts 240°
2026-05-06 07:38 -35.93349 148.12215 32150 ft 430 kts 240°
2026-05-06 07:38 -35.96800 148.06235 32155 ft 430 kts 240°
2026-05-06 07:39 -36.00279 148.00220 32161 ft 429 kts 240°
2026-05-06 07:39 -36.03745 147.94208 32162 ft 429 kts 240°
2026-05-06 07:40 -36.07195 147.88197 32161 ft 429 kts 240°
2026-05-06 07:40 -36.10648 147.82181 32165 ft 428 kts 240°
2026-05-06 07:41 -36.14094 147.76170 32171 ft 428 kts 240°
2026-05-06 07:41 -36.17533 147.70153 32163 ft 428 kts 240°
2026-05-06 07:42 -36.20963 147.64145 32166 ft 427 kts 240°
2026-05-06 07:42 -36.24384 147.58132 32170 ft 427 kts 241°
2026-05-06 07:43 -36.27779 147.52156 32170 ft 426 kts 241°
2026-05-06 07:43 -36.31194 147.46143 32166 ft 426 kts 241°
2026-05-06 07:44 -36.34606 147.40124 32160 ft 426 kts 241°
2026-05-06 07:44 -36.38019 147.34107 32166 ft 426 kts 241°
2026-05-06 07:45 -36.41429 147.28082 32161 ft 426 kts 241°
2026-05-06 07:45 -36.44800 147.22091 32161 ft 426 kts 241°
2026-05-06 07:46 -36.48205 147.16057 32163 ft 426 kts 241°
2026-05-06 07:46 -36.51600 147.10023 32161 ft 426 kts 241°
2026-05-06 07:47 -36.54987 147.03985 32168 ft 425 kts 242°
2026-05-06 07:47 -36.58369 146.97946 32167 ft 425 kts 242°
2026-05-06 07:48 -36.61742 146.91896 32168 ft 425 kts 242°
2026-05-06 07:48 -36.65117 146.85840 32168 ft 425 kts 242°
2026-05-06 07:49 -36.68488 146.79805 32171 ft 425 kts 242°
2026-05-06 07:49 -36.71867 146.73733 31939 ft 428 kts 242°
2026-05-06 07:50 -36.73561 146.70680 31690 ft 429 kts 242°
2026-05-06 07:50 -36.75260 146.67618 31440 ft 429 kts 242°
2026-05-06 07:50 -36.76961 146.64555 31192 ft 430 kts 242°
2026-05-06 07:50 -36.78663 146.61486 30952 ft 430 kts 242°
2026-05-06 07:51 -36.80366 146.58409 30704 ft 431 kts 242°
2026-05-06 07:51 -36.82043 146.55368 30471 ft 431 kts 242°
2026-05-06 07:51 -36.83745 146.52275 30190 ft 431 kts 242°
2026-05-06 07:51 -36.85448 146.49188 29352 ft 429 kts 242°
2026-05-06 07:52 -36.87128 146.46153 28768 ft 421 kts 242°
2026-05-06 07:52 -36.88787 146.43155 28152 ft 415 kts 242°
2026-05-06 07:52 -36.90417 146.40206 27542 ft 410 kts 242°
2026-05-06 07:52 -36.92023 146.37290 26939 ft 404 kts 242°
2026-05-06 07:53 -36.93609 146.34400 26348 ft 399 kts 243°
2026-05-06 07:53 -36.95149 146.31591 25774 ft 395 kts 243°
2026-05-06 07:53 -36.96695 146.28772 25192 ft 392 kts 243°
2026-05-06 07:53 -36.98228 146.25972 24619 ft 388 kts 242°
2026-05-06 07:54 -36.99743 146.23198 24051 ft 385 kts 242°
2026-05-06 07:54 -37.01250 146.20437 23454 ft 383 kts 242°
2026-05-06 07:54 -37.02748 146.17695 22871 ft 380 kts 242°
2026-05-06 07:54 -37.04231 146.14981 22348 ft 375 kts 242°
2026-05-06 07:55 -37.05699 146.12291 21825 ft 372 kts 242°
2026-05-06 07:55 -37.07151 146.09629 21327 ft 369 kts 242°
2026-05-06 07:55 -37.08595 146.06985 20836 ft 366 kts 242°
2026-05-06 07:55 -37.10022 146.04364 20358 ft 363 kts 242°
2026-05-06 07:56 -37.11435 146.01764 19875 ft 359 kts 242°
2026-05-06 07:56 -37.12834 145.99183 19408 ft 355 kts 242°
2026-05-06 07:56 -37.14214 145.96635 18942 ft 351 kts 242°
2026-05-06 07:56 -37.15581 145.94116 18458 ft 348 kts 242°
2026-05-06 07:57 -37.16937 145.91618 17921 ft 344 kts 241°
2026-05-06 07:57 -37.18275 145.89156 17425 ft 339 kts 241°
2026-05-06 07:57 -37.19593 145.86725 16939 ft 335 kts 241°
2026-05-06 07:57 -37.20890 145.84325 16435 ft 331 kts 242°
2026-05-06 07:58 -37.22175 145.81947 15939 ft 328 kts 241°
2026-05-06 07:58 -37.23435 145.79614 15442 ft 325 kts 241°
2026-05-06 07:58 -37.24699 145.77272 14956 ft 323 kts 241°
2026-05-06 07:58 -37.25937 145.74984 14808 ft 310 kts 241°
2026-05-06 07:59 -37.27124 145.72796 14685 ft 297 kts 241°
2026-05-06 07:59 -37.28266 145.70687 14513 ft 288 kts 241°
2026-05-06 07:59 -37.29367 145.68643 14413 ft 279 kts 242°
2026-05-06 07:59 -37.30262 145.66479 14343 ft 277 kts 253°
2026-05-06 08:00 -37.30816 145.64169 13950 ft 275 kts 260°
2026-05-06 08:00 -37.31258 145.61833 13521 ft 274 kts 259°
2026-05-06 08:00 -37.31706 145.59513 13134 ft 272 kts 259°
2026-05-06 08:00 -37.32155 145.57208 12752 ft 270 kts 259°
2026-05-06 08:01 -37.32600 145.54924 12378 ft 268 kts 259°
2026-05-06 08:01 -37.33040 145.52657 12007 ft 266 kts 258°
2026-05-06 08:01 -37.33471 145.50430 11641 ft 264 kts 258°
2026-05-06 08:01 -37.33902 145.48197 11267 ft 262 kts 258°
2026-05-06 08:02 -37.34330 145.45977 10908 ft 261 kts 258°
2026-05-06 08:02 -37.34754 145.43767 10543 ft 259 kts 259°
2026-05-06 08:02 -37.35174 145.41575 10181 ft 257 kts 259°
2026-05-06 08:02 -37.35592 145.39394 9816 ft 256 kts 258°
2026-05-06 08:03 -37.36010 145.37224 9439 ft 255 kts 258°
2026-05-06 08:03 -37.36426 145.35065 9104 ft 253 kts 258°
2026-05-06 08:03 -37.36838 145.32918 9049 ft 253 kts 258°
2026-05-06 08:03 -37.37249 145.30760 9048 ft 253 kts 259°
2026-05-06 08:04 -37.37658 145.28606 9046 ft 254 kts 258°
2026-05-06 08:04 -37.38070 145.26441 9030 ft 254 kts 259°
2026-05-06 08:04 -37.38483 145.24288 8824 ft 250 kts 259°
2026-05-06 08:04 -37.38883 145.22209 8689 ft 241 kts 259°
2026-05-06 08:05 -37.39266 145.20204 8560 ft 231 kts 259°
2026-05-06 08:05 -37.39632 145.18279 8425 ft 222 kts 259°
2026-05-06 08:05 -37.39987 145.16412 8195 ft 218 kts 259°
2026-05-06 08:05 -37.40340 145.14558 7917 ft 215 kts 259°
2026-05-06 08:06 -37.40685 145.12743 7442 ft 213 kts 259°
2026-05-06 08:06 -37.41031 145.10932 6909 ft 213 kts 259°
2026-05-06 08:06 -37.41374 145.09126 6443 ft 211 kts 259°
2026-05-06 08:06 -37.41713 145.07326 5878 ft 216 kts 259°
2026-05-06 08:07 -37.42059 145.05487 5625 ft 212 kts 259°
2026-05-06 08:07 -37.42400 145.03699 5343 ft 209 kts 259°
2026-05-06 08:07 -37.42736 145.01928 5203 ft 210 kts 260°
2026-05-06 08:07 -37.43073 145.00149 5033 ft 207 kts 260°
2026-05-06 08:08 -37.43405 144.98394 4780 ft 206 kts 260°
2026-05-06 08:08 -37.43735 144.96637 4505 ft 205 kts 260°
2026-05-06 08:08 -37.44061 144.94906 4211 ft 202 kts 260°
2026-05-06 08:08 -37.44358 144.93199 4000 ft 195 kts 263°
2026-05-06 08:09 -37.44591 144.91594 3894 ft 184 kts 264°
2026-05-06 08:09 -37.44805 144.90044 3783 ft 175 kts 264°
2026-05-06 08:09 -37.45010 144.88544 3667 ft 173 kts 264°
2026-05-06 08:09 -37.45214 144.87057 3557 ft 172 kts 263°
2026-05-06 08:10 -37.45419 144.85575 3456 ft 170 kts 264°
2026-05-06 08:10 -37.45615 144.84188 3351 ft 156 kts 264°
2026-05-06 08:10 -37.45806 144.82843 3227 ft 158 kts 263°
2026-05-06 08:10 -37.46251 144.81592 3122 ft 158 kts 240°
2026-05-06 08:11 -37.47083 144.80684 2906 ft 161 kts 216°
2026-05-06 08:11 -37.48165 144.80333 2657 ft 163 kts 189°
2026-05-06 08:11 -37.49260 144.80522 2434 ft 154 kts 180°
2026-05-06 08:11 -37.50318 144.80709 2334 ft 152 kts 179°
2026-05-06 08:12 -37.51360 144.80897 2326 ft 151 kts 180°
2026-05-06 08:12 -37.52404 144.81089 2329 ft 151 kts 179°
2026-05-06 08:12 -37.53429 144.81278 2325 ft 151 kts 179°
2026-05-06 08:12 -37.54475 144.81471 2301 ft 152 kts 179°
2026-05-06 08:13 -37.55518 144.81666 2275 ft 152 kts 179°
2026-05-06 08:13 -37.56557 144.81859 2150 ft 152 kts 178°
2026-05-06 08:13 -37.57604 144.82053 2001 ft 152 kts 179°
2026-05-06 08:13 -37.58640 144.82246 1812 ft 150 kts 176°
2026-05-06 08:14 -37.59681 144.82440 1603 ft 153 kts 178°
2026-05-06 08:14 -37.60719 144.82634 1401 ft 151 kts 177°
2026-05-06 08:14 -37.61761 144.82843 1198 ft 152 kts 173°
2026-05-06 08:14 -37.62803 144.83032 996 ft 151 kts 174°
2026-05-06 08:15 -37.63836 144.83214 762 ft 150 kts 171°
2026-05-06 08:15 -37.64889 144.83430 578 ft 151 kts 172°
2026-05-06 08:15 -37.65929 144.83612 419 ft 149 kts 173°
2026-05-06 08:15 -37.66800 144.83765 399 ft 100 kts 167°
2026-05-06 08:16 -37.67434 144.83886 379 ft 88 kts 168°
2026-05-06 08:16 -37.67840 144.83964 369 ft 33 kts 156°
2026-05-06 08:16 -37.67869 144.84088 365 ft 3 kts 53°
2026-05-06 08:16 -37.67870 144.84093 364 ft 0 kts 88°
2026-05-06 08:17 -37.67870 144.84097 368 ft 0 kts 88°
2026-05-06 08:18 -37.67870 144.84103 368 ft 4 kts 87°
2026-05-06 08:18 -37.67839 144.84163 347 ft 10 kts 27°
2026-05-06 08:18 -37.67748 144.84161 366 ft 15 kts 352°
2026-05-06 08:18 -37.67643 144.84142 371 ft 16 kts 353°
2026-05-06 08:19 -37.67549 144.84127 373 ft 13 kts 353°
2026-05-06 08:19 -37.67499 144.84180 375 ft 5 kts 82°
2026-05-06 08:19 -37.67497 144.84205 375 ft 1 kts 83°
2026-05-06 08:19 -37.67496 144.84211 375 ft 0 kts 83°
2026-05-06 08:20 -37.67492 144.84247 376 ft 6 kts 82°
2026-05-06 08:20 -37.67479 144.84275 376 ft 3 kts 21°
2026-05-06 08:21 -37.67406 144.84302 379 ft 19 kts
2026-05-06 08:21 -37.67270 144.84288 384 ft 19 kts 359°
2026-05-06 08:21 -37.67154 144.84260 388 ft 15 kts 347°
2026-05-06 08:21 -37.67060 144.84245 391 ft 13 kts 353°
2026-05-06 08:22 -37.66980 144.84230 389 ft 10 kts 350°
2026-05-06 08:22 -37.66924 144.84235 396 ft 6 kts 44°
2026-05-06 08:22 -37.66900 144.84264 395 ft 3 kts 44°
2026-05-06 08:22 -37.66888 144.84282 396 ft 4 kts 57°
2026-05-06 08:23 -37.66882 144.84315 399 ft 3 kts 79°
2026-05-06 08:23 -37.66879 144.84337 400 ft 2 kts 80°
2026-05-06 08:23 -37.66878 144.84347 400 ft 0 kts 82°
2026-05-06 08:23 -37.66877 144.84352 397 ft 0 kts 82°
2026-05-06 08:24 -37.66876 144.84358 400 ft 0 kts 82°